[[{"header":{"parameterUnit":"m.s-1","parameterCategory":1,"la1":30.2991,"la2":30.254,"lo1":-89.0895,"lo2":-89.0444,"dy":0.0017,"dx":0.0017,"nx":28,"ny":28,"refTime":"2025-09-06T21:00:00:Z","depth":0,"parameterNumber":2,"parameterNumberName":"U-component_of_WINDS"},"data":[0,0,0,0,0,0,0,0,0,0,0,0,0,0,0,0,0,0,0,0,0,0,0,0,0,0,0,0,0,0,0,0,0,0,0,0,0,0,0,0,0,0,0,0,0,0,0,0,0,0,0,0,0,0,0,0,0,0,1.5158,1.516,0,1.5297,1.5298,1.53,1.5351,1.5351,1.5351,1.535,1.5494,1.5498,1.5502,0,0,0,0,0,0,0,0,0,0,0,0,0,1.494,1.4944,1.5158,1.516,1.5162,1.5296,1.5298,1.53,1.5351,1.5351,1.535,1.535,1.5493,1.5498,1.5503,0,0,0,0,0,0,0,0,0,0,0,0,0,1.5052,1.4945,1.5158,1.5203,1.5209,1.5296,1.5298,1.5301,1.5352,1.5351,1.535,1.535,1.5491,1.5497,1.5503,1.5556,0,0,1.5523,1.5526,0,0,0,0,0,0,0,0,1.5046,1.506,1.5195,1.52,1.5207,1.5306,1.5274,1.5387,1.5352,1.5297,1.535,1.5349,1.5432,1.5443,1.5471,1.5563,1.5569,1.5523,1.5527,1.553,1.5532,0,0,0,0,0,0,0,1.5038,1.5055,1.5213,1.5197,1.5204,1.5218,1.5233,1.5296,1.5367,1.5302,1.5306,1.5322,1.5435,1.5465,1.5475,1.5571,1.5523,1.5529,1.5533,1.5535,1.5713,1.5714,0,0,0,0,0,0,1.5022,1.5048,1.5209,1.5217,1.5123,1.5222,1.5239,1.5275,1.5366,1.538,1.5322,1.5324,1.5454,1.5467,1.548,1.5547,1.553,1.5536,1.554,1.5712,1.5714,1.5715,0,0,0,0,0,0,1.5017,1.5036,1.5203,1.5134,1.5156,1.5226,1.5266,1.5278,1.5307,1.5382,1.5395,1.5339,1.5454,1.5471,1.5537,1.5553,1.5539,1.5545,1.5711,1.5713,1.5714,1.5682,0,0,0,0,0,0,1.5011,1.5034,1.5054,1.5134,1.5159,1.5257,1.5267,1.5281,1.5318,1.5321,1.5401,1.5413,1.5455,1.5527,1.5543,1.5561,1.555,1.571,1.5712,1.5714,1.5682,1.5682,1.5683,0,0,0,0,0,1.5003,1.5041,1.5055,1.5074,1.5186,1.5258,1.5272,1.5319,1.5319,1.534,1.5388,1.5411,1.5549,1.5533,1.5552,1.5572,1.5709,1.5711,1.5713,1.5682,1.5682,1.5683,0,0,0,0,0,0,1.4962,1.5052,1.5069,1.5133,1.5187,1.5266,1.5294,1.5318,1.5373,1.5374,1.543,1.5448,1.5509,1.5547,1.5529,1.5628,1.5631,1.5636,1.56,1.5601,1.5601,1.559,1.5555,0,0,0,0,0,1.4961,1.5011,1.5086,1.5136,1.5162,1.5223,1.5256,1.5287,1.5346,1.5369,1.5422,1.5478,1.5534,1.557,1.5626,1.5688,1.5706,1.5712,1.5712,1.5712,1.5716,1.5751,1.5754,1.5721,1.5721,1.5721,0,0,1.4958,1.5013,1.5041,1.5129,1.5175,1.5225,1.5242,1.5296,1.5334,1.5378,1.5442,1.5483,1.555,1.5614,1.5645,1.5648,1.5729,1.5714,1.5713,1.5718,1.5754,1.5757,1.5759,1.5723,1.5722,1.5722,0,0,1.4979,1.5026,1.5072,1.5117,1.5185,1.5226,1.5237,1.5312,1.534,1.5406,1.544,1.5487,1.5582,1.5628,1.5664,1.5702,1.5725,1.5719,1.5719,1.5753,1.5756,1.5758,1.5772,1.5776,1.5723,1.5723,1.5723,0,1.4967,1.5044,1.5093,1.5144,1.5181,1.5222,1.5269,1.5311,1.5394,1.542,1.5422,1.5542,1.559,1.5665,1.5674,1.5702,1.5717,1.571,1.5752,1.5755,1.5758,1.5771,1.5776,1.5721,1.5722,1.5722,1.5722,0,1.5026,1.5079,1.5108,1.5187,1.5228,1.5276,1.5332,1.5368,1.5396,1.5436,1.5502,1.5561,1.5629,1.565,1.5677,1.5729,1.5729,1.574,1.5744,1.5759,1.5772,1.5777,1.572,1.572,1.572,1.5721,0,0,1.5025,1.5129,1.5139,1.5175,1.5253,1.5295,1.5346,1.5412,1.5441,1.5498,1.5541,1.5621,1.5633,1.5673,1.5707,1.5736,1.5762,1.5745,1.5747,1.5745,1.5822,1.5811,1.5816,1.5778,1.5779,1.578,1.5816,0,1.5056,1.5147,1.5192,1.5264,1.5314,1.5354,1.5398,1.5451,1.549,1.5538,1.5582,1.5637,1.5649,1.5673,1.5705,1.5752,1.5778,1.575,1.5819,1.5821,1.5801,1.5824,1.5813,1.5844,1.5821,1.5822,1.5823,0,1.5104,1.5159,1.5235,1.5307,1.533,1.5369,1.5432,1.5478,1.5539,1.5566,1.561,1.5643,1.5698,1.5698,1.5775,1.5755,1.5787,1.5814,1.5817,1.5824,1.5822,1.5831,1.5855,1.5859,1.5832,1.5831,1.583,0,1.5094,1.5187,1.5245,1.5275,1.5361,1.5387,1.5424,1.5484,1.5521,1.5577,1.5601,1.5663,1.5697,1.5745,1.5793,1.5788,1.5865,1.5869,1.5889,1.5888,1.5903,1.5901,1.5931,1.5924,1.5924,1.5924,1.5923,0,1.5123,1.5169,1.5242,1.5277,1.5329,1.5381,1.5431,1.5471,1.5525,1.5569,1.5608,1.5649,1.5711,1.5759,1.5798,1.5856,1.5871,1.5894,1.5903,1.589,1.5887,1.5911,1.591,1.5925,1.5925,1.5924,1.5924,0,1.5121,1.5172,1.5238,1.5313,1.5333,1.5368,1.5433,1.5469,1.551,1.5566,1.5582,1.5647,1.5706,1.5759,1.5838,1.5864,1.5923,1.5935,1.5902,1.5907,1.5923,1.5921,1.597,1.5978,1.5965,1.5965,1.5965,0,1.5136,1.5172,1.5251,1.5283,1.5319,1.537,1.5407,1.5459,1.5497,1.5569,1.5596,1.5658,1.5711,1.5804,1.5858,1.5919,1.5933,1.5946,1.5942,1.5928,1.5933,1.5929,1.5933,1.5945,1.5945,1.5945,1.5945,0,1.5157,1.518,1.5232,1.5292,1.5335,1.5385,1.5437,1.5461,1.5523,1.5563,1.5624,1.5664,1.5745,1.5806,1.5873,1.5912,1.5939,1.5946,1.5953,1.594,1.5919,1.593,1.59,1.5944,1.5944,1.5944,1.5944,1.5944,1.5163,1.5196,1.5257,1.5313,1.5357,1.5404,1.5442,1.5487,1.5538,1.5607,1.5635,1.5697,1.5758,1.585,1.5889,1.5938,1.5943,1.5954,1.5957,1.5959,1.5956,1.5911,1.5951,1.5951,1.5951,1.5951,1.5951,0,1.5185,1.5226,1.5277,1.5348,1.5392,1.5413,1.5471,1.5507,1.556,1.5614,1.5664,1.5734,1.5794,1.5852,1.5915,1.5944,1.5958,1.5958,1.5957,1.5965,1.5949,1.5935,1.5946,1.5946,1.5946,1.5946,1.5946,1.5946,1.5202,1.5259,1.5289,1.5369,1.541,1.547,1.5501,1.5545,1.5588,1.5664,1.5713,1.5751,1.5807,1.5874,1.593,1.5946,1.5967,1.5964,1.5983,1.5966,1.5966,1.5966,1.5954,1.5968,1.5968,1.5996,1.5996,1.5996]},{"header":{"parameterUnit":"m.s-1","parameterCategory":1,"la1":30.2991,"la2":30.254,"lo1":-89.0895,"lo2":-89.0444,"dy":0.0017,"dx":0.0017,"nx":28,"ny":28,"refTime":"2025-09-06T21:00:00:Z","depth":0,"parameterNumber":3,"parameterNumberName":"V-component_of_WINDS"},"data":[0,0,0,0,0,0,0,0,0,0,0,0,0,0,0,0,0,0,0,0,0,0,0,0,0,0,0,0,0,0,0,0,0,0,0,0,0,0,0,0,0,0,0,0,0,0,0,0,0,0,0,0,0,0,0,0,0,0,0.7819,0.7818,0,0.7722,0.772,0.7719,0.7652,0.7651,0.7651,0.765,0.7551,0.7549,0.7547,0,0,0,0,0,0,0,0,0,0,0,0,0,0.7949,0.7947,0.782,0.7818,0.7817,0.7722,0.772,0.7719,0.7652,0.7651,0.7651,0.765,0.7552,0.7549,0.7547,0,0,0,0,0,0,0,0,0,0,0,0,0,0.7876,0.7946,0.782,0.7772,0.7767,0.7722,0.772,0.7719,0.7652,0.7651,0.765,0.765,0.7553,0.7549,0.7546,0.7542,0,0,0.7536,0.7535,0,0,0,0,0,0,0,0,0.788,0.7871,0.778,0.7775,0.7769,0.7698,0.7729,0.7659,0.7652,0.7696,0.765,0.7649,0.7601,0.7593,0.7577,0.7537,0.7533,0.7536,0.7534,0.7533,0.7532,0,0,0,0,0,0,0,0.7885,0.7875,0.7781,0.7779,0.7772,0.7756,0.7744,0.7716,0.7654,0.7692,0.7687,0.7676,0.7597,0.758,0.7574,0.7531,0.7536,0.7533,0.7531,0.753,0.7482,0.7483,0,0,0,0,0,0,0.7898,0.788,0.7784,0.7778,0.7824,0.7754,0.7741,0.7722,0.7654,0.7643,0.7677,0.7673,0.7586,0.7578,0.757,0.756,0.7533,0.753,0.7528,0.7481,0.7482,0.7483,0,0,0,0,0,0,0.7901,0.789,0.7788,0.7827,0.7813,0.7752,0.7731,0.772,0.7703,0.7642,0.7631,0.767,0.7585,0.7575,0.7549,0.7555,0.7528,0.7525,0.7481,0.7482,0.7482,0.7539,0,0,0,0,0,0,0.7905,0.7891,0.7889,0.7828,0.7811,0.7768,0.7731,0.7719,0.7697,0.7691,0.7633,0.7623,0.7584,0.7554,0.7546,0.755,0.7523,0.748,0.7481,0.7482,0.7536,0.7542,0.7547,0,0,0,0,0,0.791,0.7909,0.7889,0.7878,0.7807,0.7769,0.7759,0.7714,0.7698,0.7695,0.7656,0.7625,0.7556,0.7552,0.7542,0.7546,0.7479,0.7481,0.7482,0.7534,0.7541,0.7547,0,0,0,0,0,0,0.7973,0.79,0.7877,0.7857,0.782,0.7757,0.7752,0.7723,0.7689,0.7685,0.7631,0.7618,0.7598,0.7569,0.7566,0.7537,0.7514,0.7513,0.7557,0.7563,0.7568,0.7575,0.752,0,0,0,0,0,0.7984,0.7959,0.7897,0.7885,0.7868,0.7814,0.7795,0.7763,0.7722,0.7706,0.7666,0.7628,0.7597,0.7578,0.7547,0.7532,0.7518,0.753,0.7535,0.7539,0.7539,0.7529,0.7533,0.7488,0.7488,0.7488,0,0,0.8008,0.7965,0.7953,0.7897,0.7864,0.784,0.7801,0.7776,0.7757,0.7703,0.7675,0.7645,0.7598,0.7578,0.7567,0.7553,0.7549,0.7541,0.7545,0.7543,0.7531,0.7535,0.7539,0.7489,0.7489,0.7488,0,0,0.8038,0.8004,0.799,0.7957,0.7908,0.7872,0.7869,0.7811,0.7788,0.776,0.7718,0.7695,0.7644,0.7613,0.759,0.7608,0.7578,0.76,0.7626,0.7617,0.762,0.7623,0.7629,0.7632,0.76,0.76,0.76,0,0.8074,0.8035,0.7986,0.7964,0.794,0.789,0.7875,0.7846,0.779,0.7775,0.776,0.7695,0.766,0.7631,0.7636,0.7619,0.7614,0.7606,0.7624,0.7626,0.7628,0.7633,0.7636,0.7603,0.7603,0.7603,0.7602,0,0.8081,0.8055,0.8049,0.7995,0.7971,0.7953,0.7901,0.7883,0.7853,0.7819,0.779,0.7747,0.7706,0.7697,0.7668,0.7664,0.7657,0.7634,0.7609,0.7636,0.764,0.7641,0.7607,0.7606,0.7606,0.7605,0,0,0.8148,0.8067,0.8066,0.8041,0.7982,0.7961,0.794,0.79,0.7885,0.7848,0.7829,0.7787,0.7765,0.7739,0.7706,0.7698,0.7714,0.7676,0.7674,0.7684,0.7707,0.7724,0.7727,0.7694,0.7694,0.7695,0.771,0,0.8169,0.8129,0.8084,0.806,0.8034,0.7986,0.7968,0.793,0.7897,0.7871,0.7835,0.7806,0.778,0.7764,0.7753,0.7715,0.7718,0.7713,0.7676,0.7675,0.7689,0.7729,0.7747,0.7764,0.7711,0.7712,0.7712,0,0.8188,0.8153,0.8126,0.8069,0.8057,0.8041,0.8,0.7976,0.7932,0.7909,0.788,0.7845,0.7821,0.7799,0.7765,0.7763,0.7745,0.7724,0.7724,0.7718,0.7695,0.7724,0.7768,0.7771,0.7714,0.7714,0.7714,0,0.8239,0.8185,0.8161,0.8141,0.8075,0.8065,0.8037,0.7993,0.7971,0.7935,0.792,0.7883,0.7862,0.7834,0.7789,0.7778,0.776,0.7735,0.774,0.7741,0.7738,0.7738,0.7779,0.7727,0.7727,0.7727,0.7727,0,0.8267,0.8252,0.8183,0.8169,0.815,0.8099,0.8083,0.8051,0.8012,0.799,0.7946,0.7927,0.7869,0.7843,0.7808,0.7785,0.7776,0.7757,0.7748,0.776,0.7763,0.7748,0.7745,0.7728,0.7728,0.7728,0.7728,0,0.8321,0.8274,0.8245,0.8184,0.8169,0.8158,0.8106,0.809,0.8055,0.8028,0.8019,0.7964,0.7931,0.7884,0.7837,0.7813,0.7795,0.7781,0.781,0.7804,0.7811,0.7811,0.7844,0.7845,0.7794,0.7794,0.7795,0,0.8341,0.8328,0.8266,0.8248,0.8222,0.8194,0.8171,0.8121,0.8099,0.8048,0.8039,0.8002,0.797,0.792,0.7876,0.7839,0.7823,0.7837,0.7818,0.7831,0.7823,0.7824,0.7822,0.7842,0.7843,0.7843,0.7844,0,0.8382,0.8359,0.8328,0.8289,0.8263,0.823,0.8195,0.8183,0.8125,0.8103,0.8068,0.8044,0.7995,0.796,0.7917,0.7889,0.7857,0.7851,0.785,0.7862,0.7879,0.787,0.7822,0.785,0.7849,0.7849,0.7849,0.7848,0.8419,0.8405,0.8359,0.8326,0.8294,0.8262,0.8244,0.8206,0.8177,0.8133,0.8105,0.8072,0.8028,0.7968,0.7941,0.7915,0.7901,0.79,0.79,0.79,0.7905,0.7884,0.7907,0.7907,0.7906,0.7906,0.7906,0,0.8457,0.8425,0.8395,0.8347,0.8321,0.8293,0.8252,0.8232,0.8203,0.8165,0.8135,0.8095,0.806,0.8014,0.7975,0.7963,0.7948,0.7955,0.7955,0.7949,0.7919,0.7923,0.7968,0.7968,0.7968,0.7968,0.7968,0.7968,0.8474,0.8449,0.8421,0.8379,0.8347,0.8314,0.8293,0.8264,0.8233,0.8191,0.8161,0.8131,0.8089,0.8047,0.8014,0.8001,0.7989,0.8001,0.7984,0.7957,0.7951,0.7946,0.7949,0.7999,0.7999,0.8016,0.8016,0.8016]}]]